Regional Weather Roundup
Issued by NWS Charleston, SC

Current Version | Previous Version | Graphics & Text | Print | Product List | Glossary On
Versions: 1 2 3 4 5 6 7 8 9 10 11 12 13 14 15 16 17 18 19 20 21 22 23 24 25 26 27 28 29 30 31 32 33 34 35 36 37 38 39 40 41 42 43 44 45 46 47 48 49 50
000
ASUS42 KCHS 030727
RWRCHS

REGIONAL WEATHER ROUNDUP
NATIONAL WEATHER SERVICE CHARLESTON SC
300 AM EDT SUN MAY 03 2015

NOTE: "FAIR" INDICATES FEW OR NO CLOUDS BELOW 12,000 FEET WITH NO
SIGNIFICANT WEATHER AND/OR OBSTRUCTIONS TO VISIBILITY.

NOT ALL STATIONS ARE QUALITY CONTROLLED BY THE NATIONAL
WEATHER SERVICE. USE DATA WITH CAUTION...ESPECIALLY
DEWPOINT OBSERVATIONS.

SCZ027-030-031-034>040-042>050-030800-
...SOUTHEAST SOUTH CAROLINA...

CITY           SKY/WX    TMP DP  RH WIND       PRES   REMARKS
N CHARLESTON   CLEAR     59  56  89 CALM      30.11S
WATERFRONT PRK   N/A     64 N/A N/A CALM        N/A
MOUNT PLEASANT FAIR      55  55 100 MISG      30.10F
PINOPOLIS      NOT AVBL
MONCKS CORNER  FAIR      54  52  94 CALM      30.10S
SUMMERVILLE    FAIR      54  54 100 CALM      30.11S
BEAUFORT MCAS  CLEAR     60  55  83 CALM      30.11S
BEAUFORT ARPT  FAIR      61  59  94 CALM      30.10S
HILTON HEAD IS CLEAR     57  57 100 SW3       30.11F
WALTERBORO     SUNNY     55  52  88 W5        30.11S
ALLENDALE      FAIR      55  54  94 CALM      30.10S

...SOUTHERN MIDLANDS AND PEE DEE...

CITY           SKY/WX    TMP DP  RH WIND       PRES   REMARKS
GEORGETOWN     NOT AVBL
KINGSTREE      NOT AVBL
ORANGEBURG     CLEAR     52  48  86 S5        30.10F
BARNWELL       FAIR      54  52  94 CALM      30.11F
AIKEN          FAIR      50  46  87 CALM      30.13S
MANNING        LGT RAIN  48  30  49 CALM      30.10S
COLUMBIA       CLEAR     54  48  80 W3        30.10F
SUMTER         CLEAR     53  47  79 CALM      30.09F
FLORENCE       CLEAR     55  50  83 CALM      30.10F
MYRTLE BEACH   CLEAR     59  55  88 CALM      30.12F
N MYRTLE BEACH PTCLDY    56  55  97 CALM      30.10F FOG

$$

GAZ063-065-086>088-099>101-113>116-118-119-134>141-150-030800-
...SOUTHEAST GEORGIA...

CITY           SKY/WX    TMP DP  RH WIND       PRES   REMARKS
SAVANNAH ARPT  CLEAR     58  53  84 W3        30.11F
HUNTER AAF     CLEAR     56  55  95 SW3       30.09S
FORT STEWART   CLEAR     55  53  90 CALM      30.09F
STATESBORO       N/A     59  54  84 CALM      30.11S
SYLVANIA       SUNNY     54  54  99 CALM      30.12S
CLAXTON        FAIR      54  54 100 CALM      30.11F

...CSRA...CENTRAL AND FAR SOUTHEAST GEORGIA...

CITY           SKY/WX    TMP DP  RH WIND       PRES   REMARKS
THOMSON        CLEAR     53  53 100 CALM      30.14S
AUGUSTA-BUSH   CLEAR     48  47  96 CALM      30.10S FOG
AUGUSTA-DANIEL CLEAR     61  49  64 CALM      30.10F
SWAINSBORO     NOT AVBL
VIDALIA        CLEAR     59  54  82 S5        30.11S
EASTMAN        FAIR      53  53 100 CALM      30.12S FOG
HAZLEHURST     FAIR      60  55  82 S5        30.10S
ALMA           CLEAR     53  51  93 CALM      30.11F
WAYCROSS       CLEAR     57  55  91 CALM      30.11F
JESUP          FAIR      54  54 100 CALM      30.12S
BAXLEY         FAIR      57  55  94 CALM      30.11S
BRUNSWICK      MOCLDY    59  55  88 CALM      30.11F
SAINT SIMONS   PTCLDY    61  56  83 CALM      30.11F

$$

SCZ027-028-034-036>038-045-046-048>050-GAZ119-141-030800-
...LAKE AND SUPPLEMENTAL COASTAL OBSERVATIONS...

STATION/POSITION TIME  TEMP    WIND        PRES    WAVE   SWELL
                       AIR SEA DIR/SP/G            HT/PER HT/PER/DIR
                 (UTC) (F)     (DEG/KT/KT) (MB)    (FT/S) (FT/S/D)
UPR LAKE MARION  NOT AVBL
WINYAH BAY       0600   60     300/  2     1019.0S
LAKE MURRAY      0600   61      CALM  /  1 1019.0F
ACE BASIN NERRS  NOT AVBL
FORT PULASKI     0700   63 69  250/  3/  5 1019.7F
SAPELO ISLAND    0700   58     200/  1     1019.0F

$$

ANZ835-935-AMZ111-154-330-350-352-354-370-450-454-472-030800-
...C-MAN AND BUOY OBSERVATIONS...

STATION/POSITION TIME  TEMP    WIND        PRES    WAVE   SWELL
                       AIR SEA DIR/SP/G            HT/PER HT/PER/DIR
                 (UTC) (F)     (DEG/KT/KT) (MB)    (FT/S) (FT/S/D)
BUOY 41004       0650   70 71  230/  6/  8 1019.2F   2/12   2/12
BUOY 41008       0650   69 69  220/  6/  8 1019.9F   3/14   3/ 70/14
FOLLY BEACH CMAN 0700   64     310/  3/  4 1019.3F
CAPERS NEARSHORE 0608   68     250/  6/ 10 1019.5F
FRIPP NEARSHORE  0600   69     230/  8/ 10 1019.4R


STATION/POSITION TIME  TEMP    WIND        PRES    WAVE   SWELL
                       AIR SEA DIR/SP/G            HT/PER HT/PER/DIR
                 (UTC) (F)     (DEG/KT/KT) (MB)    (FT/S) (FT/S/D)
5E ST. MARYS GA  0621      71                N/A     3/13   2/ 90/13
FRYING PAN BUOY  0650   69 70  270/  6/ 10 1020.1F   3/ 9   3/ 70/ 9
BUOY 41025       0650   54     310/  6/  6 1019.0R   5/11   5/ 60/11
CAPE LOOKOUT NC  0700   59     230/  3/  3 1019.1F
BUOY 41002       0650   65 69  350/ 16/ 19 1018.3F   9/10   7/ 10/10
BUOY 41010       0620   72 78   40/  8/ 12 1019.2F
ST AUGUSTINE FL  0700   70 70   80/  7/  8 1020.2F


$$


USA.gov is the U.S. government's official web portal to all federal, state and local government web resources and services.